North Wilkesboro, NC

1:01 AM EST on December 15, 2019 (GMT -0500)
Wilkes County

Weather History for KUKF - October, 2019

Change the Weather History Date:

Sunday, October 20, 2019

  Actual Average Record
Temperature  
Mean Temperature 62 °F -  
Max Temperature 73 °F 67 °F 86 °F (2005)
Min Temperature 50 °F 36 °F 21 °F (1972)
Degree Days  
Heating Degree Days 4    
Growing Degree Days 12 (Base 50)    
Moisture  
Dew Point 55 °F    
Average Humidity 88    
Maximum Humidity 100    
Minimum Humidity 57    
Precipitation  
Precipitation 0.03 in - - ()
Sea Level Pressure  
Sea Level Pressure 29.91 in    
Wind  
Wind Speed 4 mph (North)    
Max Wind Speed 15 mph    
Max Gust Speed 22 mph    
Visibility 9 miles    
Events Rain    
Averages and records for this station are not official NWS values.
T = Trace of Precipitation, MM = Missing Value Source: NWS Daily Summary

Daily Weather History Graph

Daily Weather History Graph

Search for Another Location

Airport or City:

Astronomy

Oct. 20, 2019 Rise Set
Actual Time 7:35 AM EDT 6:42 PM EDT
Civil Twilight 7:09 AM EDT 7:08 PM EDT
Nautical Twilight 6:39 AM EDT 7:38 PM EDT
Astronomical Twilight 6:09 AM EDT 8:07 PM EDT
Moon 11:56 PM EDT (10/20) 1:55 PM EDT (10/20)
Length of Visible Light 11h 58m
Length of Day
11h 06m
Waning Gibbous, 59% of the Moon is Illuminated
Oct 20
Waning Gibbous
Oct 21
Last Quarter
Oct 27
New
Nov 4
First Quarter
Nov 12
Full

Hourly Weather History & Observations

Time (EDT) Temp. Dew Point Humidity Pressure Visibility Wind Dir Wind Speed Gust Speed Precip Events Conditions
12:15 AM 50.0 °F 50.0 °F 100% 29.96 in 7.0 mi NNE 8.1 mph - N/A Rain Rain
12:35 AM 50.0 °F 50.0 °F 100% 29.93 in 10.0 mi NNE 12.7 mph 17.3 mph N/A Rain Rain
12:55 AM 50.0 °F 50.0 °F 100% 29.92 in 7.0 mi NNE 11.5 mph 16.1 mph N/A Rain Light Rain
1:15 AM 50.0 °F 50.0 °F 100% 29.91 in 5.0 mi North 5.8 mph - N/A Rain Heavy Rain
1:35 AM 50.0 °F 50.0 °F 100% 29.90 in 5.0 mi NE 5.8 mph - N/A Rain Rain
1:55 AM 50.0 °F 50.0 °F 100% 29.90 in 5.0 mi Calm Calm - N/A Rain Rain
2:15 AM 50.0 °F 50.0 °F 100% 29.89 in 2.5 mi North 3.5 mph - N/A Rain Heavy Rain
2:35 AM 50.0 °F 50.0 °F 100% 29.89 in 4.0 mi Calm Calm - N/A Rain Heavy Rain
2:55 AM 50.0 °F 50.0 °F 100% 29.88 in 4.0 mi Calm Calm - N/A   Heavy Drizzle
3:15 AM 50.0 °F 50.0 °F 100% 29.87 in 3.0 mi Calm Calm - N/A   Heavy Drizzle
3:35 AM 50.0 °F 50.0 °F 100% 29.86 in 4.0 mi Calm Calm - N/A   Heavy Drizzle
3:55 AM 50.0 °F 50.0 °F 100% 29.86 in 4.0 mi Calm Calm - N/A   Drizzle
4:15 AM 50.0 °F 50.0 °F 100% 29.85 in 4.0 mi Calm Calm - N/A   Drizzle
4:35 AM 50.0 °F 50.0 °F 100% 29.84 in 3.0 mi Calm Calm - N/A   Heavy Drizzle
4:55 AM 51.8 °F 51.8 °F 100% 29.84 in 5.0 mi Calm Calm - N/A   Drizzle
5:15 AM 51.8 °F 51.8 °F 100% 29.84 in 7.0 mi Calm Calm - N/A   Drizzle
5:35 AM 51.8 °F 51.8 °F 100% 29.83 in 5.0 mi Calm Calm - N/A   Drizzle
5:55 AM 51.8 °F 51.8 °F 100% 29.83 in 10.0 mi Calm Calm - N/A   Overcast
6:15 AM 51.8 °F 51.8 °F 100% 29.84 in 10.0 mi Calm Calm - N/A   Overcast
6:35 AM 51.8 °F 51.8 °F 100% 29.83 in 10.0 mi North 3.5 mph - N/A   Overcast
6:55 AM 51.8 °F 51.8 °F 100% 29.84 in 10.0 mi Calm Calm - N/A   Overcast
7:15 AM 51.8 °F 51.8 °F 100% 29.84 in 5.0 mi NW 3.5 mph - N/A   Light Drizzle
7:35 AM 51.8 °F 51.8 °F 100% 29.84 in 7.0 mi Calm Calm - N/A   Light Drizzle
7:55 AM 53.6 °F 53.6 °F 100% 29.84 in 10.0 mi Calm Calm - N/A   Overcast
8:15 AM 53.6 °F 53.6 °F 100% 29.84 in 10.0 mi Calm Calm - N/A   Overcast
8:35 AM 53.6 °F 53.6 °F 100% 29.85 in 10.0 mi Calm Calm - N/A   Overcast
8:55 AM 53.6 °F 53.6 °F 100% 29.85 in 10.0 mi Calm Calm - N/A   Overcast
9:15 AM 53.6 °F 53.6 °F 100% 29.86 in 10.0 mi Calm Calm - N/A   Overcast
9:35 AM 53.6 °F 53.6 °F 100% 29.87 in 10.0 mi Calm Calm - N/A   Overcast
9:55 AM 55.4 °F 55.4 °F 100% 29.88 in 10.0 mi Calm Calm - N/A   Overcast
10:15 AM 57.2 °F 57.2 °F 100% 29.88 in 10.0 mi Calm Calm - N/A   Overcast
10:35 AM 59.0 °F 57.2 °F 94% 29.89 in 10.0 mi Calm Calm - 0.01 in   Overcast
10:55 AM 60.8 °F 55.4 °F 82% 29.89 in 10.0 mi NNE 6.9 mph - 0.01 in   Overcast
11:15 AM 60.8 °F 57.2 °F 88% 29.90 in 10.0 mi NNW 4.6 mph - N/A   Overcast
11:35 AM 62.6 °F 57.2 °F 82% 29.90 in 10.0 mi Calm Calm - N/A   Overcast
11:55 AM 64.4 °F 55.4 °F 73% 29.91 in 10.0 mi North 9.2 mph - N/A   Overcast
12:15 PM 64.4 °F 55.4 °F 73% 29.91 in 10.0 mi North 11.5 mph 18.4 mph N/A   Mostly Cloudy
12:35 PM 66.2 °F 55.4 °F 68% 29.90 in 10.0 mi North 15.0 mph 21.9 mph N/A   Scattered Clouds
12:55 PM 68.0 °F 55.4 °F 64% 29.90 in 10.0 mi NNE 11.5 mph 18.4 mph N/A   Clear
1:15 PM 69.8 °F 55.4 °F 60% 29.90 in 10.0 mi NE 8.1 mph 17.3 mph N/A   Mostly Cloudy
1:35 PM 68.0 °F 55.4 °F 64% 29.90 in 10.0 mi NE 8.1 mph - N/A   Overcast
1:55 PM 68.0 °F 57.2 °F 68% 29.89 in 10.0 mi NNE 8.1 mph - N/A   Overcast
2:15 PM 69.8 °F 57.2 °F 64% 29.89 in 10.0 mi NNE 4.6 mph - N/A   Overcast
2:35 PM 69.8 °F 57.2 °F 64% 29.89 in 10.0 mi Calm Calm - N/A   Overcast
2:55 PM 71.6 °F 59.0 °F 64% 29.89 in 10.0 mi Calm Calm - N/A   Overcast
3:15 PM 71.6 °F 59.0 °F 64% 29.89 in 10.0 mi West 3.5 mph - N/A   Overcast
3:35 PM 71.6 °F 57.2 °F 60% 29.90 in 10.0 mi Calm Calm - N/A   Overcast
3:55 PM 71.6 °F 57.2 °F 60% 29.90 in 10.0 mi Calm Calm - N/A   Overcast
4:15 PM 71.6 °F 59.0 °F 64% 29.90 in 10.0 mi NNE 5.8 mph - N/A   Overcast
4:35 PM 73.4 °F 59.0 °F 61% 29.91 in 10.0 mi NNE 5.8 mph - N/A   Scattered Clouds
4:55 PM 73.4 °F 59.0 °F 61% 29.91 in 10.0 mi NNE 4.6 mph - N/A   Clear
5:15 PM 73.4 °F 57.2 °F 57% 29.92 in 10.0 mi Calm Calm - N/A   Clear
5:35 PM 71.6 °F 59.0 °F 64% 29.93 in 10.0 mi Calm Calm - N/A   Clear
5:55 PM 71.6 °F 59.0 °F 64% 29.94 in 10.0 mi Calm Calm - N/A   Scattered Clouds
6:15 PM 69.8 °F 59.0 °F 68% 29.95 in 10.0 mi Calm Calm - 0.01 in   Overcast
6:35 PM 68.0 °F 57.2 °F 68% 29.95 in 10.0 mi North 5.8 mph - 0.01 in   Mostly Cloudy
6:55 PM 64.4 °F 57.2 °F 77% 29.97 in 10.0 mi Calm Calm - 0.01 in   Scattered Clouds
7:15 PM 62.6 °F 59.0 °F 88% 29.97 in 10.0 mi NNW 3.5 mph - N/A   Clear
7:35 PM 62.6 °F 59.0 °F 88% 29.98 in 10.0 mi Calm Calm - N/A   Clear
7:55 PM 59.0 °F 59.0 °F 100% 29.99 in 10.0 mi Calm Calm - N/A   Clear
8:15 PM 59.0 °F 59.0 °F 100% 30.00 in 10.0 mi Calm Calm - N/A   Clear
8:35 PM 59.0 °F 59.0 °F 100% 30.01 in 10.0 mi Calm Calm - N/A   Clear
8:55 PM 59.0 °F 59.0 °F 100% 30.01 in 10.0 mi Calm Calm - N/A   Clear
9:15 PM 57.2 °F 57.2 °F 100% 30.02 in 10.0 mi Calm Calm - N/A   Clear
9:35 PM 55.4 °F 55.4 °F 100% 30.03 in 10.0 mi Calm Calm - 0.01 in   Clear
9:55 PM 55.4 °F 55.4 °F 100% 30.03 in 10.0 mi Calm Calm - 0.01 in   Clear
10:15 PM 55.4 °F 55.4 °F 100% 30.04 in 10.0 mi North 3.5 mph - N/A   Clear
10:35 PM 55.4 °F 55.4 °F 100% 30.05 in 10.0 mi Calm Calm - N/A   Clear
10:55 PM 53.6 °F 53.6 °F 100% 30.05 in 10.0 mi North 4.6 mph - N/A   Clear
11:15 PM 53.6 °F 53.6 °F 100% 30.05 in 10.0 mi NNE 4.6 mph - N/A   Clear
11:35 PM 53.6 °F 53.6 °F 100% 30.05 in 10.0 mi Calm Calm - N/A   Clear
11:55 PM 53.6 °F 53.6 °F 100% 30.05 in 10.0 mi North 4.6 mph - N/A   Clear